FDB12T OBBI-OMDB

Flight info

Callsign FDB12T
Flight time N/A
Altitude 25000
Route BHR N697 SODAK P559 VUTEB
Aircraft B738/M-SDE2E3FGHIRWXY/LB1

Departure

Time 2026-05-08 12:17
Airport Bahrain International Airport (OBBI)

Arrival

Time N/A
Airport Dubai International Airport (OMDB)
Time Latitude Longitude Altitude Speed Heading
2026-05-08 12:11 26.27636 50.61953 17 ft 1 kts 301°
2026-05-08 12:12 26.27796 50.61664 16 ft 48 kts 302°
2026-05-08 12:12 26.27842 50.61583 16 ft 0 kts 303°
2026-05-08 12:12 26.27882 50.61514 16 ft 54 kts 303°
2026-05-08 12:12 26.28277 50.61137 5 ft 50 kts 355°
2026-05-08 12:13 26.28404 50.61125 4 ft 47 kts 10°
2026-05-08 12:13 26.27636 50.61954 17 ft 0 kts 301°
2026-05-08 12:15 26.27642 50.61943 17 ft 9 kts 301°
2026-05-08 12:15 26.27764 50.61824 16 ft 31 kts 316°
2026-05-08 12:15 26.27886 50.61668 16 ft 22 kts 344°
2026-05-08 12:15 26.28010 50.61706 16 ft 14 kts 64°
2026-05-08 12:16 26.27986 50.61802 16 ft 12 kts 120°
2026-05-08 12:16 26.27878 50.61989 16 ft 79 kts 124°
2026-05-08 12:16 26.27347 50.62907 36 ft 194 kts 123°
2026-05-08 12:16 26.26504 50.64397 497 ft 258 kts 122°
2026-05-08 12:17 26.25509 50.66256 1330 ft 300 kts 116°
2026-05-08 12:17 26.24977 50.68518 2265 ft 310 kts 93°
2026-05-08 12:17 26.25306 50.70905 2895 ft 320 kts 69°
2026-05-08 12:17 26.26443 50.72876 3350 ft 287 kts 44°
2026-05-08 12:18 26.27735 50.73822 3762 ft 248 kts 21°
2026-05-08 12:18 26.29293 50.74077 4248 ft 251 kts 355°
2026-05-08 12:18 26.30565 50.73737 4625 ft 258 kts 337°
2026-05-08 12:18 26.32086 50.72573 5142 ft 262 kts 313°
2026-05-08 12:19 26.33085 50.70878 5644 ft 264 kts 294°
2026-05-08 12:19 26.33775 50.68984 6050 ft 268 kts 307°
2026-05-08 12:19 26.35426 50.68335 5567 ft 279 kts 27°
2026-05-08 12:19 26.36670 50.69959 5025 ft 272 kts 54°
2026-05-08 12:20 26.37771 50.71648 4285 ft 282 kts 53°
2026-05-08 12:20 26.38892 50.73464 3719 ft 272 kts 58°
2026-05-08 12:20 26.39830 50.75175 4001 ft 258 kts 60°
2026-05-08 12:20 26.40608 50.77027 3542 ft 266 kts 61°
2026-05-08 12:21 26.41898 50.78426 2899 ft 270 kts 17°
2026-05-08 12:21 26.43689 50.78866 2659 ft 256 kts 13°
2026-05-08 12:21 26.45354 50.79478 2967 ft 253 kts 23°
2026-05-08 12:21 26.46933 50.80381 3374 ft 255 kts 31°
2026-05-08 12:22 26.48383 50.81527 3773 ft 257 kts 39°
2026-05-08 12:22 26.49690 50.82872 4171 ft 258 kts 46°
2026-05-08 12:22 26.50864 50.84399 4571 ft 260 kts 53°
2026-05-08 12:22 26.51619 50.86225 4962 ft 261 kts 82°
2026-05-08 12:23 26.51363 50.88217 5366 ft 263 kts 116°
2026-05-08 12:23 26.50459 50.89990 5781 ft 265 kts 116°
2026-05-08 12:23 26.50088 50.92005 6171 ft 266 kts 84°
2026-05-08 12:23 26.50765 50.93886 6608 ft 267 kts 49°
2026-05-08 12:24 26.51964 50.94899 7066 ft 287 kts 24°
2026-05-08 12:24 26.54013 50.95272 7621 ft 322 kts 354°
2026-05-08 12:24 26.57466 50.93513 8508 ft 360 kts 325°